Regional Weather Roundup
Issued by NWS

Home | Current Version | Previous Version | Graphics & Text | Print | Product List | Glossary On
Versions: 1 2 3 4 5 6 7 8 9 10 11 12 13 14 15 16 17 18 19 20 21 22 23 24 25 26 27 28 29 30 31 32 33 34 35 36 37 38 39 40 41 42 43 44 45 46 47 48 49 50
000
ASUS43 KIND 031959
RWRIN

WEATHER ROUNDUP FOR INDIANA
NATIONAL WEATHER SERVICE INDIANAPOLIS IN
400 PM EDT MON AUG 03 2015

NOTE: "FAIR" INDICATES FEW OR NO CLOUDS BELOW 12,000 FEET WITH NO
SIGNIFICANT WEATHER AND/OR OBSTRUCTIONS TO VISIBILITY.

* - STATION DOES NOT REPORT WEATHER SUCH AS PRECIPITATION OR FOG.

+ - STATION NOT QUALITY CONTROLLED BY THE NATIONAL WEATHER SERVICE.
    USE DATA WITH CAUTION...ESPECIALLY DEWPOINT AND RELATIVE
    HUMIDITY OBSERVATIONS.

INZ001>003-010>013-019-020-032100-
NORTHWEST INDIANA

CITY           SKY/WX    TMP DP  RH WIND       PRES   REMARKS
GARY /AIRPORT/ MOSUNNY   79  57  47 NE12      29.86F
KNOX *+        SUNNY     79  59  50 NW9       29.85S
MONTICELLO +   MOSUNNY   83  63  50 W9G16     29.84F

$$

LMZ046-743>745-032100-
SOUTHERN LAKE MICHIGAN

STATION/POSITION TIME  TEMP    WIND        PRES    WAVE
                       AIR SEA DIR/SP/G            HT
                 (UTC) (F)     (DEG/KT/KT) (MB)    (FT)
BURNS HARBOR     1900   74      70/  6/  8 1011.9S
MICHIGAN CITY    1900   74     350/  5/  6   N/A
5NW MICH CITY    1900   72 74   10/  4/  6   N/A     3

$$

INZ004-005-014>016-021>024-032100-
NORTH CENTRAL INDIANA

CITY           SKY/WX    TMP DP  RH WIND       PRES   REMARKS
ELKHART        SUNNY     79  48  34 NW13G22   29.86S
GOSHEN         MOSUNNY   78  60  53 W18       29.84S
LOGANSPORT +   MOSUNNY   82  59  44 W8        29.85F
SOUTH BEND     SUNNY     80  53  39 NW13G21   29.86S
WARSAW +       MOSUNNY   79  59  50 NW14G21   29.85S

$$

INZ006>009-017-018-025>027-032100-
NORTHEAST INDIANA

CITY           SKY/WX    TMP DP  RH WIND       PRES   REMARKS
ANGOLA *+      PTSUNNY   79  61  53 NW12      29.83S
FORT WAYNE     PTSUNNY   83  59  44 NW14G22   29.82F

$$

INZ028-029-035-036-043>045-051>053-032100-
WEST CENTRAL INDIANA

CITY           SKY/WX    TMP DP  RH WIND       PRES   REMARKS
CRAWFORDSVL +  PTSUNNY   80  64  59 NW7         N/A
GREENCASTLE +  MOSUNNY   86  63  45 W6        29.86F
LAFAYETTE      PTSUNNY   83  64  52 NW7       29.85S
TERRE HAUTE    MOSUNNY   87  66  49 NW12G18   29.86F

$$

INZ030>032-037>040-046>048-054>057-064-065-032100-
CENTRAL INDIANA

CITY           SKY/WX    TMP DP  RH WIND       PRES   REMARKS
FRANKFORT +    MOSUNNY   85  67  53 W9        29.88S
GREENWOOD *+   SUNNY     88  61  40 W14G22    29.85S
INDIANAPOLIS   PTSUNNY   89  65  44 W16       29.84S
-EAGLE CREEK   PTSUNNY   86  66  51 W15G22    29.84S
KOKOMO *+      MOSUNNY   84  64  51 W13       29.84F
MT COMFORT *+  SUNNY     88  59  37 W16G22    29.84S
SHELBYVILLE    PTSUNNY   88  71  57 W17G23    29.83F
ZIONSVILLE +   MOSUNNY   84  67  56 NW12G17   29.86S

$$

INZ033-034-041-042-049-050-058-059-032100-
EAST CENTRAL INDIANA

CITY           SKY/WX    TMP DP  RH WIND       PRES   REMARKS
MUNCIE         MOSUNNY   81  67  62 NW15      29.83S

$$

INZ060-061-067>069-081>083-085>088-032100-
SOUTHWEST INDIANA

CITY           SKY/WX    TMP DP  RH WIND       PRES   REMARKS
EVANSVILLE     MOSUNNY   93  67  42 W9G20     29.88S HX  96
HUNTINGBURG *+ SUNNY     91  70  49 W13       29.87F HX  97

$$

INZ062-063-066-070>080-084-089>092-032100-
SOUTH CENTRAL AND SOUTHEAST INDIANA

CITY           SKY/WX    TMP DP  RH WIND       PRES   REMARKS
BLOOMINGTON    MOSUNNY   88  70  55 VRB6      29.87S
MADISON *+     MOSUNNY   88  66  48 SW7       29.89F
SEYMOUR +      PTSUNNY   90  72  55 SW9       29.85F HX  96

$$



USA.gov is the U.S. government's official web portal to all federal, state and local government web resources and services.